 day,  time,  air_temp(C),  RH(%),  ground_temp10cm(C),  ground_temp20cm(C),  ground_temp40cm(C),  precipitation(mm/h),  Solar_Radiation(MJ/m2h),  lack, 
 07/12/01, 01:00,   1.3,  93,   3.8,   4.5,   5.7,   0.0,  0.00, 
 07/12/01, 02:00,   1.1,  92,   3.6,   4.4,   5.7,   0.0,  0.00, 
 07/12/01, 03:00,   1.1,  93,   3.6,   4.4,   5.7,   0.0,  0.00, 
 07/12/01, 04:00,   0.5,  94,   3.5,   4.4,   5.7,   0.0,  0.00, 
 07/12/01, 05:00,   1.3,  92,   3.3,   4.4,   5.7,   0.0,  0.00, 
 07/12/01, 06:00,   0.6,  93,   3.2,   4.4,   5.7,   0.0,  0.00, 
 07/12/01, 07:00,  -0.4,  95,   3.1,   4.3,   5.7,   0.0,  0.00, 
 07/12/01, 08:00,   0.1,  97,   3.1,   4.3,   5.7,   0.0,  0.21, 
 07/12/01, 09:00,   2.8,  83,   3.0,   4.3,   5.7,   0.0,  1.11, 
 07/12/01, 10:00,   3.6,  87,   3.0,   4.2,   5.7,   0.0,  1.50, 
 07/12/01, 11:00,   3.3,  85,   3.4,   4.2,   5.7,   0.0,  1.29, 
 07/12/01, 12:00,   3.7,  70,   3.7,   4.2,   5.7,   0.0,  0.66, 
 07/12/01, 13:00,   4.4,  62,   3.8,   4.2,   5.7,   0.0,  0.95, 
 07/12/01, 14:00,   4.8,  64,   4.0,   4.2,   5.7,   0.0,  0.67, 
 07/12/01, 15:00,   4.4,  70,   4.2,   4.2,   5.7,   0.0,  0.42, 
 07/12/01, 16:00,   1.5,  94,   4.3,   4.3,   5.7,   0.0,  0.10, 
 07/12/01, 17:00,   1.5,  95,   4.1,   4.3,   5.7,   0.5,  0.08, 
 07/12/01, 18:00,   0.3,  99,   4.0,   4.4,   5.7,   2.5,  0.00, 
 07/12/01, 19:00,   0.1,  99,   3.8,   4.4,   5.7,   2.0,  0.00, 
 07/12/01, 20:00,   0.3,  97,   3.7,   4.4,   5.7,   0.0,  0.00, 
 07/12/01, 21:00,   0.1,  99,   3.6,   4.4,   5.7,   0.0,  0.00, 
 07/12/01, 22:00,  -0.2,  96,   3.4,   4.4,   5.7,   0.0,  0.00, 
 07/12/01, 23:00,  -0.1,  90,   3.3,   4.4,   5.7,   0.0,  0.00, 
 07/12/02, 00:00,  -1.4,  95,   3.2,   4.4,   5.7,   0.0,  0.00, 
 07/12/02, 01:00,  -1.4,  94,   3.1,   4.3,   5.7,   0.0,  0.00, 
 07/12/02, 02:00,  -0.2,  81,   3.1,   4.3,   5.7,   0.0,  0.00, 
 07/12/02, 03:00,  -0.6,  91,   3.0,   4.3,   5.7,   0.0,  0.00, 
 07/12/02, 04:00,  -0.4,  88,   3.0,   4.2,   5.7,   0.0,  0.00, 
 07/12/02, 05:00,  -0.3,  89,   2.9,   4.2,   5.7,   0.5,  0.00, 
 07/12/02, 06:00,  -0.4,  89,   2.9,   4.2,   5.7,   0.0,  0.00, 
 07/12/02, 07:00,  -0.8,  90,   2.9,   4.1,   5.7,   0.0,  0.00, 
 07/12/02, 08:00,  -0.1,  81,   2.8,   4.1,   5.7,   0.0,  0.25, 
 07/12/02, 09:00,   1.5,  63,   2.8,   4.1,   5.7,   0.0,  0.82, 
 07/12/02, 10:00,   1.5,  92,   2.8,   4.1,   5.7,   0.0,  1.95, 
 07/12/02, 11:00,   1.8,  85,   2.9,   4.0,   5.7,   0.0,  1.46, 
 07/12/02, 12:00,   2.6,  73,   2.9,   4.0,   5.7,   0.0,  1.28, 
 07/12/02, 13:00,   2.7,  80,   2.9,   4.0,   5.7,   0.0,  0.58, 
 07/12/02, 14:00,   2.3,  76,   3.0,   4.0,   5.6,   0.0,  0.63, 
 07/12/02, 15:00,   2.4,  82,   3.0,   4.0,   5.7,   0.0,  0.60, 
 07/12/02, 16:00,   1.7,  84,   3.1,   4.0,   5.7,   0.0,  0.23, 
 07/12/02, 17:00,   1.0,  90,   3.1,   4.0,   5.7,   0.0,  0.00, 
 07/12/02, 18:00,   1.1,  90,   3.0,   4.0,   5.7,   0.0,  0.00, 
 07/12/02, 19:00,   1.2,  88,   3.0,   4.0,   5.7,   0.0,  0.00, 
 07/12/02, 20:00,   1.2,  92,   3.0,   4.0,   5.7,   0.0,  0.00, 
 07/12/02, 21:00,   1.2,  91,   2.9,   4.0,   5.7,   0.0,  0.00, 
 07/12/02, 22:00,   0.3,  92,   2.9,   4.0,   5.6,   0.0,  0.00, 
 07/12/02, 23:00,   0.5,  89,   2.8,   4.0,   5.5,   0.0,  0.00, 
 07/12/03, 00:00,   0.3,  91,   2.8,   4.0,   5.6,   0.0,  0.00, 
 07/12/03, 01:00,  -0.2,  90,   2.7,   3.9,   5.5,   0.0,  0.00, 
 07/12/03, 02:00,  -0.3,  90,   2.6,   3.9,   5.6,   0.0,  0.00, 
 07/12/03, 03:00,  -0.7,  92,   2.5,   3.9,   5.6,   0.0,  0.00, 
 07/12/03, 04:00,   1.2,  79,   2.4,   3.9,   5.5,   0.0,  0.00, 
 07/12/03, 05:00,   2.4,  63,   2.3,   3.8,   5.6,   0.0,  0.00, 
 07/12/03, 06:00,   2.4,  65,   2.3,   3.8,   5.5,   0.0,  0.00, 
 07/12/03, 07:00,   2.0,  85,   2.2,   3.8,   5.5,   0.0,  0.00, 
 07/12/03, 08:00,   2.2,  96,   2.2,   3.7,   5.6,   0.0,  0.00, 
 07/12/03, 09:00,   2.4,  99,   2.2,   3.7,   5.5,   2.0,  0.03, 
 07/12/03, 10:00,   2.4,  99,   2.3,   3.7,   5.6,   2.0,  0.06, 
 07/12/03, 11:00,   2.2,  99,   2.3,   3.6,   5.5,   1.5,  0.05, 
 07/12/03, 12:00,   1.9,  99,   2.4,   3.6,   5.6,   1.5,  0.08, 
 07/12/03, 13:00,   1.9,  99,   2.5,   3.6,   5.5,   0.5,  0.11, 
 07/12/03, 14:00,   2.3,  99,   2.6,   3.5,   5.5,   0.0,  0.16, 
 07/12/03, 15:00,   1.8,  99,   2.7,   3.5,   5.5,   0.0,  0.19, 
 07/12/03, 16:00,   1.6,  92,   2.8,   3.6,   5.5,   1.0,  0.17, 
 07/12/03, 17:00,   1.0,  87,   2.8,   3.6,   5.5,   0.0,  0.05, 
 07/12/03, 18:00,  -0.1,  95,   2.7,   3.6,   5.4,   0.0,  0.00, 
 07/12/03, 19:00,   0.4,  92,   2.6,   3.6,   5.4,   0.0,  0.00, 
 07/12/03, 20:00,   0.3,  98,   2.6,   3.6,   5.4,   0.0,  0.00, 
 07/12/03, 21:00,   0.1,  99,   2.5,   3.6,   5.4,   0.0,  0.00, 
 07/12/03, 22:00,  -0.4,  99,   2.4,   3.6,   5.4,   0.0,  0.00, 
 07/12/03, 23:00,  -0.7,  88,   2.4,   3.6,   5.4,   0.0,  0.00, 
 07/12/04, 00:00,  -0.7,  82,   2.4,   3.5,   5.4,   0.0,  0.00, 
 07/12/04, 01:00,  -1.1,  95,   2.3,   3.5,   5.4,   0.0,  0.00, 
 07/12/04, 02:00,  -1.4,  95,   2.3,   3.5,   5.4,   0.0,  0.00, 
 07/12/04, 03:00,  -1.3,  97,   2.2,   3.5,   5.4,   0.0,  0.00, 
 07/12/04, 04:00,  -1.6,  96,   2.2,   3.5,   5.3,   0.0,  0.00, 
 07/12/04, 05:00,  -2.0,  94,   2.2,   3.5,   5.3,   0.0,  0.00, 
 07/12/04, 06:00,  -2.5,  99,   2.0,   3.4,   5.3,   0.0,  0.00, 
 07/12/04, 07:00,  -2.7,  98,   2.1,   3.4,   5.3,   0.0,  0.00, 
 07/12/04, 08:00,  -2.5,  98,   2.1,   3.4,   5.3,   0.0,  0.02, 
 07/12/04, 09:00,  -2.7,  91,   2.1,   3.4,   5.3,   0.0,  0.20, 
 07/12/04, 10:00,  -2.5,  89,   2.1,   3.4,   5.3,   0.0,  0.32, 
 07/12/04, 11:00,  -2.0,  89,   2.1,   3.3,   5.3,   0.0,  0.49, 
 07/12/04, 12:00,  -1.2,  83,   2.1,   3.3,   5.3,   0.0,  0.99, 
 07/12/04, 13:00,  -1.5,  80,   2.1,   3.3,   5.3,   0.0,  1.07, 
 07/12/04, 14:00,  -1.7,  85,   2.1,   3.3,   5.3,   0.0,  0.56, 
 07/12/04, 15:00,  -2.2,  93,   2.1,   3.3,   5.3,   0.0,  0.26, 
 07/12/04, 16:00,  -2.4,  95,   2.2,   3.3,   5.3,   0.0,  0.13, 
 07/12/04, 17:00,  -2.9,  96,   2.2,   3.3,   5.3,   0.0,  0.01, 
 07/12/04, 18:00,  -3.7,  98,   2.2,   3.3,   5.2,   4.0,  0.00, 
 07/12/04, 19:00,  -3.8,  98,   2.2,   3.3,   5.2,   0.5,  0.00, 
 07/12/04, 20:00,  -4.0,  98,   2.2,   3.2,   5.2,   0.0,  0.00, 
 07/12/04, 21:00,  -4.5,  95,   2.2,   3.2,   5.2,   0.0,  0.00, 
 07/12/04, 22:00,  -4.3,  97,   2.2,   3.2,   5.2,   0.0,  0.00, 
 07/12/04, 23:00,  -4.2,  97,   2.2,   3.2,   5.2,   0.0,  0.00, 
 07/12/05, 00:00,  -4.5,  97,   2.2,   3.2,   5.2,   0.0,  0.00, 
 07/12/05, 01:00,  -4.5,  97,   2.2,   3.2,   5.2,   0.0,  0.00, 
 07/12/05, 02:00,  -4.5,  96,   2.2,   3.2,   5.2,   0.0,  0.00, 
 07/12/05, 03:00,  -4.7,  94,   2.2,   3.2,   5.2,   0.0,  0.00, 
 07/12/05, 04:00,  -4.6,  96,   2.2,   3.2,   5.2,   0.0,  0.00, 
 07/12/05, 05:00,  -4.8,  94,   2.2,   3.2,   5.2,   0.0,  0.00, 
 07/12/05, 06:00,  -4.9,  94,   2.2,   3.2,   5.2,   0.0,  0.00, 
 07/12/05, 07:00,  -4.7,  95,   2.2,   3.2,   5.1,   0.0,  0.00, 
 07/12/05, 08:00,  -4.5,  94,   2.1,   3.2,   5.1,   0.0,  0.05, 
 07/12/05, 09:00,  -3.9,  87,   2.1,   3.2,   5.1,   0.0,  0.32, 
 07/12/05, 10:00,  -2.5,  84,   2.1,   3.2,   5.1,   0.0,  1.68, 
 07/12/05, 11:00,  -2.7,  81,   2.2,   3.2,   5.1,   2.0,  0.78, 
 07/12/05, 12:00,  -2.7,  82,   2.2,   3.2,   5.1,   0.0,  0.53, 
 07/12/05, 13:00,  -2.6,  84,   2.2,   3.2,   5.1,   0.0,  0.45, 
 07/12/05, 14:00,  -2.7,  81,   2.2,   3.2,   5.1,   0.5,  0.56, 
 07/12/05, 15:00,  -2.9,  86,   2.2,   3.2,   5.1,   0.0,  0.46, 
 07/12/05, 16:00,  -2.9,  86,   2.2,   3.2,   5.1,   0.0,  0.26, 
 07/12/05, 17:00,  -3.4,  87,   2.2,   3.2,   5.1,   0.0,  0.03, 
 07/12/05, 18:00,  -3.4,  82,   2.2,   3.2,   5.1,   0.0,  0.00, 
 07/12/05, 19:00,  -3.6,  86,   2.2,   3.2,   5.1,   0.0,  0.00, 
 07/12/05, 20:00,  -3.3,  79,   2.2,   3.2,   5.1,   0.0,  0.00, 
 07/12/05, 21:00,  -3.2,  81,   2.2,   3.2,   5.1,   0.5,  0.00, 
 07/12/05, 22:00,  -3.4,  84,   2.2,   3.2,   5.1,   0.0,  0.00, 
 07/12/05, 23:00,  -3.2,  83,   2.2,   3.2,   5.0,   0.0,  0.00, 
 07/12/06, 00:00,  -3.0,  77,   2.2,   3.1,   5.0,   0.0,  0.00, 
 07/12/06, 01:00,  -2.9,  75,   2.2,   3.1,   5.0,   0.0,  0.00, 
 07/12/06, 02:00,  -2.9,  76,   2.1,   3.1,   5.0,   0.0,  0.00, 
 07/12/06, 03:00,  -2.6,  75,   2.1,   3.1,   5.0,   0.0,  0.01, 
 07/12/06, 04:00,  -2.6,  76,   2.0,   3.1,   5.0,   0.0,  0.00, 
 07/12/06, 05:00,  -2.8,  74,   2.0,   3.1,   5.0,   0.0,  0.00, 
 07/12/06, 06:00,  -2.1,  69,   2.1,   3.1,   5.0,   0.0,  0.01, 
 07/12/06, 07:00,  -2.6,  74,   2.1,   3.1,   5.0,   0.0,  0.00, 
 07/12/06, 08:00,  -1.6,  70,   2.1,   3.1,   5.0,   0.0,  0.11, 
 07/12/06, 09:00,  -1.1,  75,   2.0,   3.1,   5.0,   0.0,  0.65, 
 07/12/06, 10:00,   1.3,  63,   2.1,   3.1,   5.0,   0.0,  1.45, 
 07/12/06, 11:00,   2.1,  59,   2.1,   3.1,   5.0,   0.0,  1.84, 
 07/12/06, 12:00,   1.8,  61,   2.1,   3.1,   5.1,   0.0,  1.91, 
 07/12/06, 13:00,   2.5,  60,   2.1,   3.1,   5.0,   0.0,  2.08, 
 07/12/06, 14:00,   2.5,  60,   2.2,   3.1,   5.0,   0.0,  1.43, 
 07/12/06, 15:00,   2.5,  59,   2.2,   3.1,   5.0,   0.0,  0.86, 
 07/12/06, 16:00,   2.0,  65,   2.2,   3.1,   5.0,   0.0,  0.24, 
 07/12/06, 17:00,   0.6,  75,   2.2,   3.1,   5.0,   0.0,  0.06, 
 07/12/06, 18:00,  -0.6,  82,   2.2,   3.1,   5.0,   0.0,  0.00, 
 07/12/06, 19:00,  -1.3,  88,   2.2,   3.1,   4.9,   0.0,  0.00, 
 07/12/06, 20:00,  -0.7,  88,   2.1,   3.1,   4.9,   0.0,  0.00, 
 07/12/06, 21:00,  -0.5,  88,   2.1,   3.1,   4.9,   0.0,  0.01, 
 07/12/06, 22:00,  -0.6,  85,   2.0,   3.1,   4.9,   0.0,  0.00, 
 07/12/06, 23:00,  -0.5,  81,   2.0,   3.1,   4.9,   0.0,  0.00, 
 07/12/07, 00:00,   0.3,  49,   2.0,   3.1,   4.9,   0.0,  0.00, 
 07/12/07, 01:00,  -0.2,  56,   2.0,   3.1,   4.9,   0.0,  0.01, 
 07/12/07, 02:00,  -0.3,  73,   1.9,   3.0,   4.9,   0.0,  0.00, 
 07/12/07, 03:00,  -1.1,  92,   1.9,   3.0,   4.9,   0.0,  0.01, 
 07/12/07, 04:00,  -1.2,  93,   1.9,   3.0,   4.9,   0.0,  0.01, 
 07/12/07, 05:00,  -1.1,  92,   1.9,   3.0,   4.9,   0.0,  0.01, 
 07/12/07, 06:00,  -0.7,  91,   1.7,   3.0,   4.9,   0.0,  0.01, 
 07/12/07, 07:00,  -0.5,  93,   1.7,   3.0,   4.9,   0.0,  0.01, 
 07/12/07, 08:00,  -0.3,  94,   1.7,   3.0,   4.9,   0.0,  0.02, 
 07/12/07, 09:00,  -0.2,  96,   1.7,   3.0,   4.9,   0.0,  0.05, 
 07/12/07, 10:00,   0.1,  94,   1.7,   2.9,   4.9,   0.5,  0.22, 
 07/12/07, 11:00,   0.4,  90,   1.7,   2.9,   4.9,   0.0,  0.20, 
 07/12/07, 12:00,   0.5,  97,   1.8,   2.9,   4.9,   0.0,  0.32, 
 07/12/07, 13:00,   0.8,  95,   1.8,   2.9,   4.9,   0.0,  0.64, 
 07/12/07, 14:00,   0.5,  92,   1.9,   2.9,   4.8,   0.0,  0.37, 
 07/12/07, 15:00,   0.7,  91,   2.0,   2.9,   4.8,   0.0,  0.18, 
 07/12/07, 16:00,   0.7,  89,   2.0,   2.9,   4.8,   0.0,  0.09, 
 07/12/07, 17:00,   0.7,  89,   2.0,   2.9,   4.8,   0.0,  0.02, 
 07/12/07, 18:00,   0.6,  91,   2.0,   2.9,   4.8,   0.5,  0.02, 
 07/12/07, 19:00,   0.5,  94,   2.0,   2.9,   4.8,   0.0,  0.00, 
 07/12/07, 20:00,   0.3,  97,   2.0,   2.9,   4.8,   0.0,  0.02, 
 07/12/07, 21:00,   0.1,  99,   2.0,   2.9,   4.8,   0.0,  0.01, 
 07/12/07, 22:00,   0.0,  99,   1.9,   2.9,   4.8,   0.0,  0.01, 
 07/12/07, 23:00,  -0.2,  97,   2.0,   2.9,   4.8,   0.5,  0.00, 
 07/12/08, 00:00,  -0.6,  93,   1.9,   2.9,   4.8,   0.0,  0.01, 
 07/12/08, 01:00,  -0.7,  92,   2.0,   2.9,   4.8,   0.0,  0.00, 
 07/12/08, 02:00,  -1.0,  86,   1.9,   2.9,   4.8,   0.0,  0.01, 
 07/12/08, 03:00,  -1.1,  88,   2.0,   2.9,   4.8,   0.0,  0.00, 
 07/12/08, 04:00,  -1.1,  84,   1.8,   2.9,   4.8,   0.0,  0.01, 
 07/12/08, 05:00,  -0.8,  75,   1.8,   2.9,   4.8,   0.0,  0.00, 
 07/12/08, 06:00,  -0.7,  72,   1.8,   2.9,   4.8,   0.0,  0.01, 
 07/12/08, 07:00,  -1.8,  81,   1.8,   2.9,   4.8,   0.0,  0.00, 
 07/12/08, 08:00,  -1.9,  84,   1.7,   2.9,   4.7,   0.0,  0.16, 
 07/12/08, 09:00,   1.3,  74,   1.7,   2.9,   4.7,   0.0,  0.94, 
 07/12/08, 10:00,   1.4,  79,   1.7,   2.9,   4.7,   0.0,  1.58, 
 07/12/08, 11:00,   1.4,  80,   1.8,   2.9,   4.7,   0.0,  1.50, 
 07/12/08, 12:00,   1.6,  72,   1.8,   2.8,   4.7,   0.0,  0.98, 
 07/12/08, 13:00,   1.9,  72,   1.9,   2.8,   4.7,   0.0,  1.06, 
 07/12/08, 14:00,   1.3,  75,   2.0,   2.8,   4.7,   0.0,  1.09, 
 07/12/08, 15:00,   1.8,  69,   2.0,   2.8,   4.7,   0.0,  0.63, 
 07/12/08, 16:00,   1.5,  63,   2.0,   2.8,   4.7,   0.0,  0.41, 
 07/12/08, 17:00,   0.5,  72,   2.0,   2.9,   4.7,   0.0,  0.06, 
 07/12/08, 18:00,  -0.5,  83,   2.0,   2.9,   4.7,   0.0,  0.01, 
 07/12/08, 19:00,  -0.7,  86,   2.0,   2.9,   4.7,   0.0,  0.00, 
 07/12/08, 20:00,  -1.1,  95,   2.0,   2.9,   4.7,   0.0,  0.00, 
 07/12/08, 21:00,  -1.3,  92,   2.0,   2.9,   4.7,   0.0,  0.01, 
 07/12/08, 22:00,  -1.2,  92,   1.9,   2.9,   4.7,   0.0,  0.02, 
 07/12/08, 23:00,  -1.3,  91,   1.9,   2.9,   4.7,   0.0,  0.01, 
 07/12/09, 00:00,  -2.1,  98,   1.9,   2.9,   4.6,   0.0,  0.01, 
 07/12/09, 01:00,  -2.1,  97,   1.9,   2.9,   4.7,   0.0,  0.01, 
 07/12/09, 02:00,  -2.1,  99,   1.8,   2.9,   4.7,   2.0,  0.01, 
 07/12/09, 03:00,  -2.5,  97,   1.8,   2.9,   4.7,   0.5,  0.01, 
 07/12/09, 04:00,  -2.5,  86,   1.8,   2.9,   4.7,   0.0,  0.01, 
 07/12/09, 05:00,  -2.8,  94,   1.8,   2.9,   4.7,   0.0,  0.02, 
 07/12/09, 06:00,  -2.8,  95,   1.8,   2.9,   4.7,   0.5,  0.01, 
 07/12/09, 07:00,  -2.4,  91,   1.8,   2.9,   4.7,   0.5,  0.01, 
 07/12/09, 08:00,  -2.5,  94,   1.8,   2.9,   4.7,   0.0,  0.04, 
 07/12/09, 09:00,  -2.2,  94,   1.8,   2.9,   4.5,   0.0,  0.16, 
 07/12/09, 10:00,  -2.3,  98,   1.8,   2.9,   4.5,   0.0,  0.22, 
 07/12/09, 11:00,  -2.1,  91,   1.8,   2.9,   4.6,   1.0,  0.32, 
 07/12/09, 12:00,  -2.3,  89,   1.8,   2.9,   4.6,   0.5,  0.46, 
 07/12/09, 13:00,  -2.3,  87,   1.8,   2.8,   4.6,   0.5,  0.41, 
 07/12/09, 14:00,  -2.2,  82,   1.9,   2.8,   4.5,   0.0,  0.62, 
 07/12/09, 15:00,  -2.6,  94,   1.9,   2.9,   4.6,   0.0,  0.19, 
 07/12/09, 16:00,  -2.9,  91,   1.9,   2.8,   4.5,   0.0,  0.09, 
 07/12/09, 17:00,  -3.0,  92,   1.8,   2.8,   4.6,   0.5,  0.02, 
 07/12/09, 18:00,  -3.1,  90,   1.8,   2.8,   4.5,   0.0,  0.01, 
 07/12/09, 19:00,  -3.3,  87,   1.8,   2.8,   4.5,   0.0,  0.02, 
 07/12/09, 20:00,  -3.4,  84,   1.8,   2.8,   4.6,   0.0,  0.02, 
 07/12/09, 21:00,  -3.8,  87,   1.8,   2.8,   4.6,   0.0,  0.01, 
 07/12/09, 22:00,  -3.8,  80,   1.8,   2.8,   4.6,   0.0,  0.01, 
 07/12/09, 23:00,  -4.5,  80,   1.8,   2.8,   4.6,   0.0,  0.02, 
 07/12/10, 00:00,  -5.2,  82,   1.8,   2.8,   4.5,   0.0,  0.01, 
 07/12/10, 01:00,  -4.5,  73,   1.8,   2.8,   4.5,   0.0,  0.00, 
 07/12/10, 02:00,  -5.7,  81,   1.8,   2.8,   4.6,   0.0,  0.00, 
 07/12/10, 03:00,  -5.5,  79,   1.8,   2.7,   4.5,   0.0,  0.00, 
 07/12/10, 04:00,  -5.3,  75,   1.8,   2.7,   4.5,   0.0,  0.00, 
 07/12/10, 05:00,  -6.3,  83,   1.8,   2.8,   4.6,   0.0,  0.00, 
 07/12/10, 06:00,  -5.1,  77,   1.8,   2.8,   4.6,   0.0,  0.00, 
 07/12/10, 07:00,  -3.4,  75,   1.8,   2.7,   4.5,   0.0,  0.00, 
 07/12/10, 08:00,  -2.8,  71,   1.8,   2.8,   4.5,   0.0,  0.12, 
 07/12/10, 09:00,  -0.7,  63,   1.7,   2.8,   4.5,   0.0,  0.80, 
 07/12/10, 10:00,   0.9,  58,   1.7,   2.8,   4.5,   0.0,  1.37, 
 07/12/10, 11:00,   1.8,  57,   1.8,   2.8,   4.6,   0.0,  1.84, 
 07/12/10, 12:00,   1.6,  61,   1.9,   2.8,   4.6,   0.0,  1.96, 
 07/12/10, 13:00,   1.9,  67,   1.9,   2.8,   4.6,   0.0,  1.40, 
 07/12/10, 14:00,   1.7,  64,   1.9,   2.8,   4.6,   0.0,  0.75, 
 07/12/10, 15:00,   1.7,  62,   1.9,   2.8,   4.6,   0.0,  0.71, 
 07/12/10, 16:00,   1.3,  61,   1.8,   2.8,   4.6,   0.0,  0.26, 
 07/12/10, 17:00,   1.0,  64,   1.9,   2.8,   4.6,   0.0,  0.05, 
 07/12/10, 18:00,   0.9,  65,   1.8,   2.8,   4.5,   0.0,  0.01, 
 07/12/10, 19:00,   0.6,  67,   1.8,   2.8,   4.5,   0.0,  0.01, 
 07/12/10, 20:00,  -0.9,  87,   1.8,   2.8,   4.5,   0.0,  0.01, 
 07/12/10, 21:00,   0.6,  67,   1.8,   2.8,   4.5,   0.0,  0.00, 
 07/12/10, 22:00,  -1.0,  77,   1.8,   2.8,   4.5,   0.0,  0.00, 
 07/12/10, 23:00,  -0.4,  74,   1.8,   2.8,   4.5,   0.0,  0.00, 
 07/12/11, 00:00,   0.7,  69,   1.8,   2.8,   4.5,   0.0,  0.00, 
 07/12/11, 01:00,  -0.8,  82,   1.8,   2.8,   4.5,   0.0,  0.00, 
 07/12/11, 02:00,  -0.8,  80,   1.8,   2.8,   4.5,   0.0,  0.01, 
 07/12/11, 03:00,  -1.0,  78,   1.8,   2.8,   4.5,   0.0,  0.00, 
 07/12/11, 04:00,   0.9,  64,   1.7,   2.7,   4.5,   0.0,  0.01, 
 07/12/11, 05:00,   0.1,  69,   1.7,   2.7,   4.5,   0.0,  0.01, 
 07/12/11, 06:00,   1.0,  64,   1.7,   2.7,   4.5,   0.0,  0.00, 
 07/12/11, 07:00,   1.0,  66,   1.7,   2.7,   4.5,   0.0,  0.01, 
 07/12/11, 08:00,   2.1,  57,   1.7,   2.7,   4.5,   0.0,  0.05, 
 07/12/11, 09:00,   2.5,  54,   1.7,   2.7,   4.5,   0.5,  0.14, 
 07/12/11, 10:00,   1.2,  72,   1.7,   2.7,   4.4,   0.0,  0.18, 
 07/12/11, 11:00,   0.6,  93,   1.7,   2.7,   4.5,   0.0,  0.16, 
 07/12/11, 12:00,   1.5,  94,   1.7,   2.7,   4.4,   0.0,  0.27, 
 07/12/11, 13:00,   1.6,  96,   1.7,   2.7,   4.4,   0.0,  0.37, 
 07/12/11, 14:00,   1.9,  98,   1.7,   2.7,   4.5,   0.0,  0.28, 
 07/12/11, 15:00,   2.1,  99,   1.7,   2.7,   4.5,   0.0,  0.09, 
 07/12/11, 16:00,   2.2,  99,   1.7,   2.7,   4.5,   0.0,  0.04, 
 07/12/11, 17:00,   2.4,  99,   1.7,   2.7,   4.5,   0.0,  0.00, 
 07/12/11, 18:00,   2.5,  99,   1.7,   2.7,   4.5,   0.0,  0.00, 
 07/12/11, 19:00,   2.6,  99,   1.7,   2.7,   4.4,   0.0,  0.00, 
 07/12/11, 20:00,   3.0,  99,   1.7,   2.7,   4.5,   0.0,  0.00, 
 07/12/11, 21:00,   3.1,  99,   1.7,   2.7,   4.5,   1.0,  0.00, 
 07/12/11, 22:00,   2.4,  99,   1.7,   2.7,   4.4,   0.0,  0.00, 
 07/12/11, 23:00,   3.1,  99,   1.8,   2.7,   4.4,   0.0,  0.00, 
 07/12/12, 00:00,   3.0,  99,   1.8,   2.7,   4.4,   0.0,  0.00, 
 07/12/12, 01:00,   2.7,  99,   1.8,   2.7,   4.4,   0.0,  0.00, 
 07/12/12, 02:00,   2.9,  98,   1.8,   2.7,   4.4,   0.0,  0.00, 
 07/12/12, 03:00,   2.8,  99,   1.8,   2.7,   4.4,   0.5,  0.00, 
 07/12/12, 04:00,   2.0,  99,   1.8,   2.6,   4.4,   0.0,  0.00, 
 07/12/12, 05:00,   3.0,  92,   1.8,   2.6,   4.4,   0.0,  0.00, 
 07/12/12, 06:00,   2.3,  94,   1.7,   2.6,   4.4,   0.0,  0.00, 
 07/12/12, 07:00,   2.7,  84,   1.7,   2.6,   4.4,   0.5,  0.00, 
 07/12/12, 08:00,   2.1,  90,   1.7,   2.6,   4.4,   0.0,  0.08, 
 07/12/12, 09:00,   1.9,  96,   1.7,   2.6,   4.4,   0.0,  0.24, 
 07/12/12, 10:00,   3.4,  92,   1.8,   2.6,   4.4,   0.0,  1.07, 
 07/12/12, 11:00,   3.0,  95,   1.8,   2.6,   4.4,   0.0,  0.64, 
 07/12/12, 12:00,   2.9,  90,   1.9,   2.6,   4.4,   0.0,  0.84, 
 07/12/12, 13:00,   4.2,  76,   1.9,   2.6,   4.3,   0.0,  1.59, 
 07/12/12, 14:00,   4.0,  71,   2.0,   2.6,   4.3,   0.0,  0.68, 
 07/12/12, 15:00,   4.1,  68,   2.1,   2.6,   4.3,   0.0,  0.61, 
 07/12/12, 16:00,   4.0,  65,   2.1,   2.6,   4.3,   0.0,  0.26, 
 07/12/12, 17:00,   2.6,  77,   2.1,   2.6,   4.3,   0.0,  0.02, 
 07/12/12, 18:00,   2.0,  76,   2.1,   2.7,   4.3,   0.0,  0.00, 
 07/12/12, 19:00,   2.3,  71,   2.1,   2.7,   4.3,   0.0,  0.00, 
 07/12/12, 20:00,   2.6,  67,   2.0,   2.8,   4.3,   0.0,  0.00, 
 07/12/12, 21:00,   3.3,  58,   2.0,   2.7,   4.3,   0.0,  0.01, 
 07/12/12, 22:00,   1.9,  70,   2.0,   2.7,   4.3,   0.0,  0.01, 
 07/12/12, 23:00,   2.3,  73,   1.9,   2.7,   4.3,   0.0,  0.00, 
 07/12/13, 00:00,   2.3,  80,   1.9,   2.7,   4.3,   0.0,  0.01, 
 07/12/13, 01:00,   1.3,  89,   1.9,   2.7,   4.3,   0.0,  0.00, 
 07/12/13, 02:00,   1.4,  94,   1.9,   2.7,   4.3,   0.0,  0.01, 
 07/12/13, 03:00,   1.6,  98,   1.9,   2.7,   4.3,   0.0,  0.00, 
 07/12/13, 04:00,   1.5,  99,   1.9,   2.7,   4.3,   0.5,  0.00, 
 07/12/13, 05:00,   1.5,  99,   1.9,   2.7,   4.3,   0.5,  0.00, 
 07/12/13, 06:00,   2.2,  98,   1.9,   2.7,   4.3,   0.5,  0.00, 
 07/12/13, 07:00,   3.2,  99,   1.9,   2.7,   4.3,   0.5,  0.00, 
 07/12/13, 08:00,   3.9,  99,   1.9,   2.7,   4.3,   0.0,  0.01, 
 07/12/13, 09:00,   4.1,  99,   2.0,   2.7,   4.3,   0.0,  0.05, 
 07/12/13, 10:00,   4.1,  99,   2.1,   2.7,   4.3,   0.0,  0.08, 
 07/12/13, 11:00,   4.0,  99,   2.2,   2.7,   4.3,   0.5,  0.10, 
 07/12/13, 12:00,   4.1,  99,   2.3,   2.7,   4.3,   0.0,  0.07, 
 07/12/13, 13:00,   3.8,  99,   2.3,   2.7,   4.3,   1.0,  0.08, 
 07/12/13, 14:00,   3.5,  99,   2.4,   2.7,   4.2,   0.0,  0.07, 
 07/12/13, 15:00,   3.3,  99,   2.4,   2.7,   4.2,   0.0,  0.15, 
 07/12/13, 16:00,   2.8,  99,   2.5,   2.8,   4.2,   0.0,  0.08, 
 07/12/13, 17:00,   2.0,  99,   2.5,   2.8,   4.2,   0.0,  0.00, 
 07/12/13, 18:00,   1.3,  98,   2.5,   2.8,   4.2,   0.0,  0.00, 
 07/12/13, 19:00,   1.0,  97,   2.5,   2.9,   4.2,   0.0,  0.00, 
 07/12/13, 20:00,   0.2,  97,   2.4,   2.9,   4.2,   0.0,  0.00, 
 07/12/13, 21:00,   0.1,  99,   2.4,   2.9,   4.2,   0.0,  0.00, 
 07/12/13, 22:00,  -0.3,  99,   2.3,   2.9,   4.2,   2.0,  0.00, 
 07/12/13, 23:00,  -0.7,  99,   2.2,   2.9,   4.2,   2.5,  0.00, 
 07/12/14, 00:00,  -1.1,  99,   2.1,   2.9,   4.2,   0.0,  0.00, 
 07/12/14, 01:00,  -1.5,  96,   2.0,   2.9,   4.2,   0.5,  0.00, 
 07/12/14, 02:00,  -1.7,  98,   2.0,   2.9,   4.2,   1.0,  0.00, 
 07/12/14, 03:00,  -2.8,  92,   2.0,   2.9,   4.2,   0.0,  0.00, 
 07/12/14, 04:00,  -2.9,  90,   1.9,   2.9,   4.2,   0.0,  0.00, 
 07/12/14, 05:00,  -3.0,  87,   1.9,   2.9,   4.2,   0.0,  0.00, 
 07/12/14, 06:00,  -3.1,  94,   1.9,   2.8,   4.3,   0.0,  0.00, 
 07/12/14, 07:00,  -3.2,  97,   1.9,   2.8,   4.3,   0.0,  0.00, 
 07/12/14, 08:00,  -3.0,  98,   1.8,   2.8,   4.3,   0.5,  0.03, 
 07/12/14, 09:00,  -2.2,  92,   1.8,   2.8,   4.3,   0.0,  0.15, 
 07/12/14, 10:00,  -2.3,  99,   1.8,   2.8,   4.3,   0.5,  0.37, 
 07/12/14, 11:00,  -2.7,  98,   1.8,   2.8,   4.3,   0.0,  0.50, 
 07/12/14, 12:00,  -2.6,  92,   1.8,   2.8,   4.3,   0.5,  0.68, 
 07/12/14, 13:00,  -1.7,  86,   1.9,   2.8,   4.3,   0.0,  0.99, 
 07/12/14, 14:00,  -2.5,  97,   1.9,   2.7,   4.3,   0.5,  0.48, 
 07/12/14, 15:00,  -3.1,  91,   1.9,   2.7,   4.3,   0.0,  0.38, 
 07/12/14, 16:00,  -3.0,  89,   1.8,   2.7,   4.3,   0.0,  0.31, 
 07/12/14, 17:00,  -3.6,  96,   1.7,   2.7,   4.3,   0.0,  0.07, 
 07/12/14, 18:00,  -3.5,  98,   1.7,   2.7,   4.3,   0.0,  0.00, 
 07/12/14, 19:00,  -3.7,  97,   1.7,   2.7,   4.3,   0.0,  0.00, 
 07/12/14, 20:00,  -3.8,  95,   1.7,   2.7,   4.3,   0.0,  0.00, 
 07/12/14, 21:00,  -3.8,  96,   1.7,   2.7,   4.3,   0.0,  0.00, 
 07/12/14, 22:00,  -3.7,  97,   1.7,   2.7,   4.3,   0.0,  0.00, 
 07/12/14, 23:00,  -3.8,  96,   1.7,   2.7,   4.3,   0.0,  0.00, 
 07/12/15, 00:00,  -3.8,  94,   1.7,   2.7,   4.2,   0.0,  0.00, 
 07/12/15, 01:00,  -3.8,  93,   1.7,   2.7,   4.3,   0.0,  0.00, 
 07/12/15, 02:00,  -3.9,  96,   1.7,   2.7,   4.2,   0.0,  0.00, 
 07/12/15, 03:00,  -3.9,  93,   1.7,   2.7,   4.1,   0.0,  0.00, 
 07/12/15, 04:00,  -3.8,  95,   1.6,   2.6,   4.2,   0.0,  0.00, 
 07/12/15, 05:00,  -3.5,  94,   1.6,   2.6,   4.2,   0.5,  0.00, 
 07/12/15, 06:00,  -3.5,  96,   1.6,   2.6,   4.2,   0.5,  0.00, 
 07/12/15, 07:00,  -3.5,  95,   1.6,   2.6,   4.2,   0.0,  0.00, 
 07/12/15, 08:00,  -3.5,  97,   1.6,   2.6,   4.2,   0.0,  0.00, 
 07/12/15, 09:00,  -3.4,  96,   1.6,   2.6,   4.2,   0.5,  0.08, 
 07/12/15, 10:00,  -3.0,  95,   1.6,   2.6,   4.1,   0.0,  0.26, 
 07/12/15, 11:00,  -2.4,  96,   1.6,   2.6,   4.2,   0.5,  0.26, 
 07/12/15, 12:00,  -2.5,  97,   1.6,   2.6,   4.1,   1.5,  0.16, 
 07/12/15, 13:00,  -1.5,  95,   1.6,   2.6,   4.2,   0.5,  0.29, 
 07/12/15, 14:00,  -2.1,  91,   1.6,   2.6,   4.2,   0.0,  0.26, 
 07/12/15, 15:00,  -3.1,  92,   1.6,   2.6,   4.2,   1.0,  0.17, 
 07/12/15, 16:00,  -3.2,  86,   1.6,   2.6,   4.1,   0.5,  0.20, 
 07/12/15, 17:00,  -3.4,  88,   1.6,   2.6,   4.2,   0.0,  0.01, 
 07/12/15, 18:00,  -3.7,  93,   1.6,   2.6,   4.1,   0.0,  0.00, 
 07/12/15, 19:00,  -3.8,  94,   1.6,   2.6,   4.2,   0.5,  0.00, 
 07/12/15, 20:00,  -3.6,  96,   1.6,   2.6,   4.2,   0.5,  0.00, 
 07/12/15, 21:00,  -3.7,  96,   1.6,   2.6,   4.1,   1.0,  0.00, 
 07/12/15, 22:00,  -3.8,  96,   1.6,   2.6,   4.2,   1.0,  0.00, 
 07/12/15, 23:00,  -3.7,  97,   1.6,   2.6,   4.2,   0.5,  0.00, 
 07/12/16, 00:00,  -3.8,  96,   1.6,   2.6,   4.2,   1.0,  0.00, 
 07/12/16, 01:00,  -3.9,  96,   1.6,   2.5,   4.2,   0.5,  0.00, 